K9ABJ Weather Reports


time (UTC)temp
C
wind
direction
speed
KPH
gust
KPH
rain 1hr
cm
rain 24hr
cm
rain mn
cm
humidity
%
barometer
mb
20260509002301 13 164 11.3 17.7 0.00 0.10 0.10 87 1007.3
20260509001758 13 83 12.9 16.1 0.00 0.10 0.10 87 1007.4
20260509001254 13 130 11.3 16.1 0.00 0.10 0.10 87 1007.5
20260509000751 13 149 6.4 17.7 0.00 0.10 0.10 87 1007.5
20260509000248 13 128 12.9 17.7 0.00 0.10 0.10 86 1007.4
20260508235745 13 111 11.3 20.9 0.00 0.10 0.10 86 1007.6
20260508235242 13 111 20.9 20.9 0.00 0.10 0.10 86 1007.4
20260508234739 13 121 9.7 17.7 0.00 0.10 0.10 87 1007.6
20260508234236 13 87 12.9 16.1 0.00 0.10 0.10 87 1007.6
20260508233735 13 96 17.7 17.7 0.00 0.10 0.10 86 1007.7
20260508233233 13 124 8.0 19.3 0.00 0.10 0.10 86 1007.6
20260508232730 13 112 11.3 17.7 0.00 0.10 0.10 87 1007.6
20260508232226 13 87 11.3 14.5 0.00 0.10 0.10 87 1007.6
20260508231724 13 103 12.9 20.9 0.00 0.10 0.10 87 1007.5
20260508231221 13 114 14.5 17.7 0.00 0.10 0.10 87 1007.7
20260508230718 13 99 8.0 19.3 0.00 0.10 0.10 88 1007.5
20260508230214 13 121 11.3 19.3 0.00 0.10 0.10 87 1007.6
20260508225712 13 96 11.3 16.1 0.00 0.10 0.10 87 1007.8
20260508225208 13 146 6.4 14.5 0.00 0.10 0.10 88 1007.8
20260508224706 13 100 14.5 17.7 0.00 0.10 0.10 87 1007.6
20260508224203 13 99 14.5 19.3 0.00 0.10 0.10 87 1007.8
20260508223701 13 127 8.0 17.7 0.00 0.10 0.10 87 1007.9
20260508223158 13 111 9.7 19.3 0.00 0.10 0.10 87 1007.8
20260508222655 13 150 12.9 24.1 0.00 0.10 0.10 87 1007.7
20260508222153 13 117 11.3 24.1 0.00 0.10 0.10 87 1008.0
20260508221648 13 130 20.9 27.4 0.00 0.10 0.10 86 1007.9
20260508221144 13 96 8.0 17.7 0.00 0.10 0.10 86 1007.9
20260508220641 13 117 11.3 22.5 0.00 0.10 0.10 86 1007.9
20260508220138 13 113 16.1 17.7 0.00 0.10 0.10 86 1007.9
20260508215634 13 103 9.7 14.5 0.00 0.10 0.10 86 1007.7
20260508215131 13 105 11.3 16.1 0.00 0.10 0.10 86 1007.8
20260508214628 13 152 8.0 25.7 0.00 0.10 0.10 85 1007.8
20260508214125 13 106 12.9 22.5 0.00 0.10 0.10 85 1007.8
20260508213622 13 102 9.7 16.1 0.00 0.10 0.10 86 1007.8
20260508213118 13 76 11.3 22.5 0.00 0.10 0.10 86 1007.8
20260508212615 13 123 9.7 14.5 0.00 0.10 0.10 86 1007.9
20260508212111 13 129 6.4 19.3 0.00 0.10 0.10 87 1007.8
20260508211606 13 99 8.0 24.1 0.00 0.10 0.10 87 1008.0
20260508211103 13 97 12.9 16.1 0.00 0.10 0.10 87 1008.1
20260508210559 13 92 14.5 14.5 0.00 0.10 0.10 87 1008.3
20260508210057 13 166 6.4 16.1 0.00 0.10 0.10 87 1008.4
20260508205554 13 109 11.3 24.1 0.00 0.10 0.10 86 1008.2
20260508205050 13 89 8.0 17.7 0.00 0.10 0.10 87 1008.5
20260508204547 13 122 14.5 22.5 0.00 0.10 0.10 86 1008.4
20260508204043 13 164 17.7 20.9 0.00 0.10 0.10 86 1008.3
20260508203539 13 156 9.7 33.8 0.05 0.10 0.10 86 1008.6
20260508203035 13 142 9.7 25.7 0.05 0.10 0.10 85 1008.4
20260508202532 13 136 17.7 27.4 0.00 0.10 0.10 84 1008.4
20260508202029 14 102 9.7 9.7 0.05 0.10 0.10 84 1008.7
20260508201526 15 108 11.3 14.5 0.18 0.10 0.10 82 1008.6
20260508201022 15 101 12.9 12.9 0.05 0.08 0.08 80 1008.5
20260508200520 15 117 11.3 12.9 0.00 0.05 0.05 76 1008.6
20260508200015 15 92 8.0 9.7 0.00 0.05 0.05 75 1008.6
20260508195512 15 96 9.7 11.3 0.00 0.05 0.05 73 1008.6
20260508195008 15 96 9.7 11.3 0.00 0.05 0.05 74 1008.7
20260508194506 15 102 12.9 12.9 0.00 0.05 0.05 72 1008.6
20260508194003 15 94 11.3 14.5 0.00 0.05 0.05 71 1008.7
20260508193459 16 93 8.0 11.3 0.00 0.05 0.05 70 1008.7
20260508192955 17 96 11.3 11.3 0.00 0.05 0.05 69 1008.7
20260508192452 17 100 8.0 11.3 0.00 0.05 0.05 70 1009.1
20260508191949 16 80 11.3 14.5 0.00 0.05 0.05 72 1009.1
20260508191446 16 83 11.3 14.5 0.00 0.05 0.05 70 1008.6
20260508190943 16 77 12.9 12.9 0.00 0.05 0.05 70 1009.2
20260508190441 15 94 8.0 11.3 0.00 0.05 0.05 73 1009.2
20260508185936 16 89 9.7 11.3 0.00 0.05 0.05 73 1009.2
20260508185434 15 101 11.3 12.9 0.00 0.05 0.05 74 1009.5
20260508184931 15 117 6.4 12.9 0.00 0.05 0.05 75 1009.4
20260508184429 15 109 8.0 9.7 0.00 0.05 0.05 74 1009.4
20260508183925 15 106 9.7 9.7 0.00 0.05 0.05 74 1009.4
20260508183422 15 103 9.7 14.5 0.00 0.05 0.05 74 1009.5
20260508182917 15 79 14.5 14.5 0.00 0.05 0.05 77 1009.6
20260508182415 14 96 11.3 17.7 0.00 0.05 0.05 78 1009.9
20260508181915 15 84 12.9 19.3 0.00 0.05 0.05 76 1009.9
20260508181412 15 76 11.3 19.3 0.00 0.05 0.05 78 1010.0
20260508180909 15 139 8.0 14.5 0.00 0.05 0.05 79 1010.0
20260508180406 15 141 8.0 11.3 0.00 0.05 0.05 81 1010.0
20260508175902 15 93 12.9 12.9 0.00 0.05 0.05 83 1010.1
20260508175359 13 86 11.3 14.5 0.00 0.05 0.05 83 1010.2
20260508174857 13 95 8.0 9.7 0.00 0.05 0.05 85 1010.2
20260508174354 13 93 16.1 16.1 0.00 0.05 0.05 86 1010.2
20260508173850 12 110 11.3 12.9 0.00 0.05 0.05 85 1010.2
20260508173348 13 92 11.3 14.5 0.00 0.05 0.05 86 1010.6
20260508172843 13 75 11.3 12.9 0.00 0.05 0.05 87 1010.7
20260508172341 12 71 12.9 12.9 0.00 0.05 0.05 87 1010.7
20260508171837 12 68 12.9 16.1 0.00 0.05 0.05 87 1010.8
20260508171333 11 97 11.3 14.5 0.00 0.05 0.05 86 1010.9
20260508170830 11 95 11.3 12.9 0.00 0.05 0.05 87 1010.9
20260508170328 11 83 9.7 12.9 0.00 0.05 0.05 87 1011.2
20260508165825 11 101 8.0 14.5 0.00 0.05 0.05 87 1011.3
20260508165322 11 95 9.7 14.5 0.00 0.05 0.05 87 1011.4
20260508164818 11 101 9.7 14.5 0.00 0.05 0.05 87 1011.5
20260508164315 11 88 12.9 12.9 0.05 0.05 0.05 88 1011.5
20260508163813 11 94 11.3 16.1 0.23 0.05 0.05 87 1011.6
20260508163310 11 114 11.3 12.9 0.13 0.05 0.05 87 1011.6
20260508162806 11 103 9.7 12.9 0.05 0.03 0.03 87 1011.6
20260508162306 11 126 14.5 22.5 0.05 0.03 0.03 85 1011.8
20260508161800 12 119 14.5 17.7 0.00 0.00 0.00 83 1011.6
20260508161257 12 99 12.9 24.1 0.00 0.00 0.00 83 1011.6
20260508160755 12 121 11.3 22.5 0.00 0.00 0.00 84 1011.3
20260508160253 12 110 11.3 17.7 0.00 0.00 0.00 85 1011.5
20260508155749 11 121 12.9 16.1 0.00 0.00 0.00 85 1011.6
20260508155246 11 118 11.3 19.3 0.00 0.00 0.00 85 1011.6
20260508154743 11 80 17.7 22.5 0.00 0.00 0.00 86 1011.7
20260508154241 11 129 11.3 16.1 0.00 0.00 0.00 86 1011.6
20260508153737 11 153 8.0 20.9 0.00 0.00 0.00 86 1011.7
20260508153235 11 96 11.3 22.5 0.00 0.00 0.00 87 1011.6
20260508152731 11 90 11.3 14.5 0.00 0.00 0.00 87 1011.7
20260508152226 10 121 9.7 20.9 0.00 0.00 0.00 87 1011.7
20260508151723 10 107 14.5 20.9 0.00 0.00 0.00 87 1011.9
20260508151220 10 122 6.4 16.1 0.00 0.00 0.00 87 1011.9
20260508150716 10 148 12.9 14.5 0.00 0.00 0.00 87 1011.8
20260508150213 10 96 11.3 12.9 0.00 0.00 0.00 87 1012.0
20260508145709 10 148 9.7 16.1 0.00 0.00 0.00 87 1012.1
20260508145205 10 109 8.0 11.3 0.00 0.00 0.00 87 1012.0
20260508144703 10 96 8.0 14.5 0.05 0.00 0.00 87 1012.0
20260508144200 10 106 12.9 16.1 0.05 0.00 0.00 87 1012.1
20260508143658 10 129 3.2 22.5 0.00 0.00 0.00 88 1012.4
20260508143155 10 79 0.0 17.7 0.00 0.00 0.00 88 1012.6
20260508142651 10 193 16.1 20.9 0.00 0.00 0.00 87 1012.4
20260508142148 11 127 9.7 16.1 0.00 0.00 0.00 86 1012.5
20260508141644 11 137 6.4 20.9 0.00 0.00 0.00 86 1012.4
20260508141142 11 114 6.4 14.5 0.00 0.00 0.00 86 1012.4
20260508140639 11 151 8.0 17.7 0.00 0.00 0.00 86 1012.5
20260508140136 11 128 4.8 22.5 0.00 0.00 0.00 85 1012.4
20260508135631 11 138 16.1 16.1 0.00 0.00 0.00 85 1012.0
20260508135127 11 113 6.4 16.1 0.00 0.00 0.00 85 1012.0
20260508134625 11 109 8.0 17.7 0.00 0.00 0.00 86 1011.9
20260508134122 11 114 14.5 17.7 0.00 0.00 0.00 86 1012.0
20260508133618 11 100 12.9 12.9 0.00 0.00 0.00 86 1012.2
20260508133116 11 104 14.5 17.7 0.00 0.00 0.00 85 1012.2
20260508132613 10 131 11.3 17.7 0.00 0.00 0.00 86 1012.3
20260508132110 10 104 8.0 14.5 0.00 0.00 0.00 86 1012.2
20260508131606 10 102 11.3 16.1 0.00 0.00 0.00 86 1012.0
20260508131103 10 99 12.9 17.7 0.00 0.00 0.00 86 1011.9
20260508130559 10 104 9.7 12.9 0.00 0.00 0.00 86 1012.1
20260508130057 10 102 14.5 14.5 0.00 0.00 0.00 85 1012.1
20260508125551 10 111 4.8 11.3 0.00 0.00 0.00 85 1012.2
20260508125049 10 97 11.3 11.3 0.00 0.00 0.00 86 1012.2
20260508124548 10 104 8.0 12.9 0.00 0.00 0.00 85 1012.2
20260508124044 10 99 9.7 12.9 0.00 0.00 0.00 85 1012.3
20260508123543 10 94 11.3 12.9 0.00 0.00 0.00 85 1012.2
20260508123039 10 124 8.0 14.5 0.00 0.00 0.00 85 1011.9
20260508122536 10 94 9.7 11.3 0.00 0.00 0.00 86 1012.0
20260508122033 10 83 8.0 12.9 0.00 0.00 0.00 86 1012.0
20260508121531 10 103 8.0 11.3 0.00 0.00 0.00 86 1012.0
20260508121028 10 94 11.3 12.9 0.00 0.00 0.00 86 1012.0
20260508120525 10 106 9.7 12.9 0.00 0.00 0.00 85 1011.9
20260508120024 10 106 11.3 12.9 0.00 0.00 0.00 86 1011.9
20260508115521 9 99 6.4 12.9 0.00 0.00 0.00 86 1012.0
20260508115017 9 102 9.7 9.7 0.00 0.00 0.00 86 1011.9
20260508114514 9 107 11.3 12.9 0.00 0.00 0.00 86 1011.9
20260508114011 9 96 9.7 12.9 0.00 0.00 0.00 85 1011.8
20260508113509 9 99 9.7 14.5 0.00 0.00 0.00 86 1011.7
20260508113006 9 102 11.3 14.5 0.00 0.00 0.00 86 1011.7
20260508112502 8 107 9.7 14.5 0.00 0.00 0.00 86 1011.7
20260508111959 8 120 8.0 12.9 0.00 0.00 0.00 86 1011.6
20260508111456 8 112 4.8 12.9 0.00 0.00 0.00 86 1011.8
20260508110953 8 96 11.3 14.5 0.00 0.00 0.00 87 1011.7
20260508110451 8 112 8.0 11.3 0.00 0.00 0.00 87 1011.6
20260508105950 8 105 8.0 11.3 0.00 0.00 0.00 88 1011.7
20260508105447 8 122 8.0 14.5 0.00 0.00 0.00 88 1011.6
20260508104944 7 106 9.7 12.9 0.00 0.00 0.00 88 1011.4
20260508104442 7 107 8.0 12.9 0.00 0.00 0.00 88 1011.7
20260508103938 7 130 8.0 11.3 0.00 0.00 0.00 88 1011.6
20260508103435 7 114 8.0 11.3 0.00 0.00 0.00 88 1011.4
20260508102932 7 114 9.7 12.9 0.00 0.00 0.00 88 1011.4
20260508102431 7 108 8.0 11.3 0.00 0.00 0.00 88 1011.1
20260508101927 7 108 14.5 14.5 0.00 0.00 0.00 88 1011.3
20260508101425 7 106 8.0 11.3 0.00 0.00 0.00 88 1011.2
20260508100922 7 99 8.0 12.9 0.00 0.00 0.00 88 1011.1
20260508100421 7 99 6.4 11.3 0.00 0.00 0.00 88 1011.4
20260508095916 7 121 8.0 11.3 0.00 0.00 0.00 88 1011.4
20260508095414 7 104 9.7 11.3 0.00 0.00 0.00 88 1011.6
20260508094910 7 101 9.7 11.3 0.00 0.00 0.00 88 1011.5
20260508094408 7 110 8.0 11.3 0.00 0.00 0.00 88 1011.8
20260508093904 7 115 9.7 12.9 0.00 0.00 0.00 88 1011.4
20260508093402 7 99 6.4 11.3 0.00 0.00 0.00 88 1011.6
20260508092859 7 94 8.0 11.3 0.00 0.00 0.00 88 1011.7
20260508092357 7 100 11.3 11.3 0.00 0.00 0.00 89 1011.5
20260508091856 7 101 11.3 11.3 0.00 0.00 0.00 89 1011.7
20260508091351 7 112 8.0 12.9 0.00 0.00 0.00 89 1011.4
20260508090849 7 89 11.3 12.9 0.00 0.00 0.00 89 1011.5
20260508090348 7 91 9.7 11.3 0.00 0.00 0.00 89 1011.9
20260508085843 7 103 9.7 11.3 0.00 0.00 0.00 89 1011.9
20260508085340 7 100 9.7 11.3 0.00 0.00 0.00 89 1011.5
20260508084837 6 89 9.7 11.3 0.00 0.00 0.00 88 1011.5
20260508084333 7 114 6.4 9.7 0.00 0.00 0.00 88 1011.5
20260508083831 7 118 8.0 14.5 0.00 0.00 0.00 89 1011.5
20260508083328 7 122 8.0 12.9 0.00 0.00 0.00 89 1011.5
20260508082828 7 113 9.7 12.9 0.00 0.00 0.00 88 1011.3
20260508082326 7 107 11.3 12.9 0.00 0.00 0.00 88 1011.7
20260508081823 7 121 8.0 9.7 0.00 0.00 0.00 89 1011.7
20260508081320 7 99 9.7 11.3 0.00 0.00 0.00 88 1011.6
20260508080817 7 115 6.4 16.1 0.00 0.00 0.00 89 1011.5
20260508080315 7 94 14.5 14.5 0.00 0.00 0.00 88 1011.5
20260508075811 7 125 6.4 12.9 0.00 0.00 0.00 89 1011.7
20260508075309 7 109 9.7 12.9 0.00 0.00 0.00 89 1011.3
20260508074806 6 120 12.9 14.5 0.00 0.00 0.00 89 1011.6
20260508074303 7 90 8.0 9.7 0.00 0.00 0.00 89 1011.4
20260508073800 7 121 6.4 11.3 0.00 0.00 0.00 89 1011.3
20260508073258 7 107 8.0 12.9 0.00 0.00 0.00 89 1011.4
20260508072753 7 107 9.7 14.5 0.00 0.00 0.00 89 1011.7
20260508072251 7 115 12.9 12.9 0.00 0.00 0.00 90 1011.5
20260508071748 7 107 9.7 14.5 0.00 0.00 0.00 90 1011.4
20260508071246 6 118 12.9 14.5 0.00 0.00 0.00 90 1011.5
20260508070743 7 98 11.3 12.9 0.00 0.00 0.00 91 1011.6
20260508070242 7 112 9.7 11.3 0.00 0.00 0.00 91 1011.5
20260508065738 6 117 8.0 11.3 0.00 0.00 0.00 91 1011.5
20260508065237 7 119 9.7 14.5 0.00 0.00 0.00 92 1011.6
20260508064734 6 92 9.7 14.5 0.00 0.00 0.00 92 1011.9
20260508064232 6 120 9.7 14.5 0.00 0.00 0.00 92 1011.6
20260508063729 6 93 9.7 14.5 0.00 0.00 0.00 92 1011.8
20260508063227 6 104 9.7 11.3 0.00 0.00 0.00 93 1011.7
20260508062724 6 99 11.3 14.5 0.00 0.00 0.00 93 1011.7
20260508062222 6 111 9.7 14.5 0.00 0.00 0.00 93 1011.7
20260508061718 6 103 9.7 11.3 0.00 0.00 0.00 93 1011.8
20260508061216 6 107 8.0 14.5 0.00 0.00 0.00 93 1011.8
20260508060712 6 89 9.7 14.5 0.00 0.00 0.00 93 1011.8
20260508060210 6 110 11.3 12.9 0.00 0.00 0.00 93 1012.0
20260508055705 6 97 8.0 12.9 0.00 0.00 0.00 93 1011.8
20260508055202 6 101 8.0 11.3 0.00 0.00 0.00 93 1011.9
20260508054658 6 98 9.7 12.9 0.00 0.00 0.00 93 1012.3
20260508054156 6 99 8.0 12.9 0.00 0.00 0.00 93 1012.1
20260508053653 6 92 11.3 12.9 0.00 0.00 0.00 93 1012.0
20260508053151 6 98 9.7 12.9 0.00 0.00 0.00 93 1011.9
20260508052648 6 94 9.7 11.3 0.00 0.00 0.00 93 1012.1
20260508052145 6 93 9.7 11.3 0.00 0.00 0.00 93 1012.1
20260508051641 6 92 9.7 9.7 0.00 0.00 0.00 93 1012.2
20260508051136 6 105 9.7 11.3 0.00 0.00 0.00 93 1012.1
20260508050633 6 98 8.0 11.3 0.00 0.00 0.00 93 1012.1
20260508050131 6 90 11.3 12.9 0.00 0.00 0.00 93 1012.2
20260508045626 6 93 11.3 12.9 0.00 0.00 0.00 93 1012.3
20260508045124 6 90 9.7 11.3 0.00 0.00 0.00 93 1012.4
20260508044621 7 86 8.0 11.3 0.00 0.00 0.00 93 1012.2
20260508044117 6 85 9.7 11.3 0.00 0.00 0.00 92 1012.2
20260508043614 7 83 11.3 12.9 0.00 0.00 0.00 92 1012.2
20260508043112 7 87 11.3 12.9 0.00 0.00 0.00 92 1012.2
20260508042608 7 91 9.7 11.3 0.00 0.00 0.00 92 1012.2
20260508042106 7 94 9.7 12.9 0.00 0.00 0.00 92 1012.1
20260508041601 7 90 11.3 12.9 0.00 0.00 0.00 92 1012.3
20260508041058 7 93 12.9 14.5 0.00 0.00 0.00 92 1012.1
20260508040555 7 82 11.3 11.3 0.00 0.00 0.00 92 1011.9
20260508040053 7 80 11.3 11.3 0.00 0.13 0.13 92 1012.2
20260508035549 7 85 11.3 12.9 0.00 0.13 0.13 92 1012.1
20260508035047 7 77 12.9 12.9 0.00 0.13 0.13 92 1012.1
20260508034543 7 73 12.9 12.9 0.00 0.13 0.13 92 1012.1
20260508034041 7 86 11.3 11.3 0.00 0.13 0.13 91 1012.2
20260508033538 7 82 11.3 12.9 0.00 0.13 0.13 91 1012.0
20260508033036 8 81 14.5 14.5 0.00 0.13 0.13 91 1012.1
20260508032532 8 88 9.7 12.9 0.00 0.13 0.13 91 1012.1
20260508032030 7 84 11.3 12.9 0.00 0.13 0.13 91 1012.3
20260508031527 7 86 12.9 12.9 0.00 0.13 0.13 91 1012.4
20260508031022 8 87 12.9 14.5 0.00 0.13 0.13 90 1012.3
20260508030520 8 84 12.9 16.1 0.00 0.13 0.13 90 1012.7
20260508030018 8 80 12.9 14.5 0.00 0.13 0.13 89 1012.8
20260508025513 8 82 11.3 11.3 0.00 0.13 0.13 89 1013.0
20260508025011 8 80 11.3 11.3 0.05 0.13 0.13 88 1012.8
20260508024507 8 72 9.7 12.9 0.00 0.10 0.10 88 1012.7
20260508024004 8 76 11.3 12.9 0.23 0.10 0.10 87 1012.8
20260508023500 8 98 8.0 12.9 0.30 0.10 0.10 87 1012.9
20260508022958 9 73 9.7 14.5 0.18 0.05 0.05 86 1013.0
20260508022453 9 81 9.7 11.3 0.18 0.05 0.05 85 1012.8
20260508021950 9 80 9.7 9.7 0.18 0.03 0.03 83 1012.4
20260508021446 10 69 11.3 11.3 0.05 0.00 0.00 80 1012.1
20260508020942 10 95 11.3 11.3 0.00 0.00 0.00 77 1012.0
20260508020440 10 72 9.7 11.3 0.00 0.00 0.00 76 1011.8
20260508015937 10 92 8.0 16.1 0.00 0.00 0.00 74 1011.9
20260508015435 10 102 12.9 16.1 0.00 0.00 0.00 73 1011.7
20260508014931 10 90 11.3 17.7 0.00 0.00 0.00 73 1011.5
20260508014428 10 86 12.9 20.9 0.00 0.00 0.00 73 1011.6
20260508013924 10 92 14.5 19.3 0.00 0.00 0.00 72 1011.4
20260508013420 10 101 11.3 14.5 0.00 0.00 0.00 72 1011.5
20260508012918 10 99 11.3 16.1 0.00 0.00 0.00 71 1011.5
20260508012414 10 108 11.3 19.3 0.00 0.00 0.00 71 1011.5
20260508011912 10 88 14.5 17.7 0.00 0.00 0.00 70 1011.4
20260508011410 10 121 14.5 19.3 0.00 0.00 0.00 70 1011.3
20260508010907 10 117 12.9 17.7 0.00 0.00 0.00 70 1011.3
20260508010404 11 82 12.9 24.1 0.00 0.00 0.00 69 1011.5
20260508005901 11 87 16.1 19.3 0.00 0.00 0.00 68 1011.5
20260508005358 11 90 9.7 17.7 0.00 0.00 0.00 67 1011.5
20260508004854 11 121 14.5 22.5 0.00 0.00 0.00 66 1011.6
20260508004350 11 124 16.1 20.9 0.00 0.00 0.00 65 1011.5
20260508003847 11 121 8.0 17.7 0.00 0.00 0.00 65 1011.6
20260508003344 11 141 12.9 19.3 0.00 0.00 0.00 64 1011.4
20260508002841 11 102 9.7 24.1 0.00 0.00 0.00 64 1011.7